This is the latest recevied weather packets stored in our database for station/object KK7KHO. If no packets are shown the sender has not sent any weather packets the latest 10 day(s).
| Time | Temp. | Humidity | Pressure | Rain* | Wind** | Luminosity | Snow |
|---|---|---|---|---|---|---|---|
| 1777845046 | 25° C | 48% | 1011.1 hPa | 0 mm | - | 599 W/m² | - |
| 1777844745 | 25° C | 48% | 1011.1 hPa | 0 mm | - | 611 W/m² | - |
| 1777844441 | 25.56° C | 48% | 1011.2 hPa | 0 mm | - | 609 W/m² | - |
| 1777844139 | 25° C | 48% | 1011.1 hPa | 0 mm | - | 619 W/m² | - |
| 1777843836 | 24.44° C | 51% | 1011.4 hPa | 0 mm | - | 634 W/m² | - |
| 1777843533 | 25° C | 50% | 1011.2 hPa | 0 mm | - | 644 W/m² | - |
| 1777843231 | 24.44° C | 50% | 1011.2 hPa | 0 mm | - | 627 W/m² | - |
| 1777842927 | 24.44° C | 50% | 1011.3 hPa | 0 mm | - | 653 W/m² | - |
| 1777842623 | 24.44° C | 50% | 1011.3 hPa | 0 mm | - | 656 W/m² | - |
| 1777842320 | 24.44° C | 53% | 1011.6 hPa | 0 mm | - | 660 W/m² | - |
| 1777842016 | 23.89° C | 53% | 1011.5 hPa | 0 mm | - | 663 W/m² | - |
| 1777841712 | 23.89° C | 51% | 1011.6 hPa | 0 mm | - | 665 W/m² | - |
| 1777841409 | 23.89° C | 55% | 1011.7 hPa | 0 mm | - | 669 W/m² | - |
| 1777841106 | 24.44° C | 53% | 1011.8 hPa | 0 mm | - | 670 W/m² | - |
| 1777840803 | 23.89° C | 54% | 1011.8 hPa | 0 mm | - | 674 W/m² | - |
| 1777840500 | 23.89° C | 53% | 1011.8 hPa | 0 mm | - | 676 W/m² | - |
| 1777840196 | 23.89° C | 53% | 1011.9 hPa | 0 mm | - | 677 W/m² | - |
| 1777839895 | 23.89° C | 53% | 1012.1 hPa | 0 mm | - | 678 W/m² | - |
| 1777839593 | 23.89° C | 55% | 1011.9 hPa | 0 mm | - | 676 W/m² | - |
| 1777839290 | 23.89° C | 53% | 1011.9 hPa | 0 mm | - | 679 W/m² | - |
| 1777838988 | 23.89° C | 54% | 1012 hPa | 0 mm | - | 680 W/m² | - |
| 1777838684 | 23.33° C | 55% | 1012.1 hPa | 0 mm | - | 680 W/m² | - |
| 1777838380 | 23.33° C | 55% | 1012.2 hPa | 0 mm | - | 678 W/m² | - |
| 1777838078 | 23.33° C | 55% | 1012.1 hPa | 0 mm | - | 679 W/m² | - |
| 1777837774 | 23.89° C | 56% | 1012.3 hPa | 0 mm | - | 676 W/m² | - |
* Rain latest hour (hover to see other rain measurements)
** Current wind speed in m/s (hover to see current wind gust speed)